Location: Garshuizen
(53.3675°N, 6.7248°E)
Time: 08:19:33
(UTC+00:00)

Cosmos 1707 - Pass Details

Date: 15 May 2026
Orbit: 334 x 337 km, 82.5° (Epoch: 5 June)

Event Time Altitude Azimuth Distance (km) Brightness Sun altitude
Exits shadow 22:23:17 29° 227° (SW) 694 3.1 -16.2°
Maximum altitude 22:24:24 47° 285° (WNW) 486 2.7 -16.2°
Drops below altitude 10° 22:27:14 10° 1° (N) 1,348 6.0 -16.4°
Sets 22:29:15 0° 7° (N) 2,197 7.2 -16.4°
